Spokane, WA

11:31 PM PST on December 11, 2017 (GMT -0800)
Spokane International

Weather History for KGEG - January, 2014

Change the Weather History Date:

Sunday, January 12, 2014

  Actual Average Record
Temperature  
Mean Temperature 37 °F 29 °F  
Max Temperature 41 °F 34 °F 53 °F (1983)
Min Temperature 33 °F 24 °F -7 °F (1949)
Degree Days  
Heating Degree Days 28 36  
Month to date heating degree days 401 442  
Since 1 July heating degree days 3269 3276  
Cooling Degree Days 0 0  
Month to date cooling degree days 0 0  
Year to date cooling degree days 0 0  
Moisture  
Dew Point 30 °F    
Average Humidity 77    
Maximum Humidity 89    
Minimum Humidity 64    
Precipitation  
Precipitation T in 0.06 in 0.63 in (1958)
Month to date precipitation 0.59 0.77  
Year to date precipitation 0.59 0.77  
Snow  
Snow 0.00 in 0.50 in 4.00 in (1921)
Month to date snowfall 2.5 5.6  
Since 1 July snowfall 9.3 27.7  
Snow Depth 0.00 in    
Sea Level Pressure  
Sea Level Pressure 29.91 in    
Wind  
Wind Speed 20 mph (SW)    
Max Wind Speed 33 mph    
Max Gust Speed 41 mph    
Visibility 10 miles    
Events Rain    
T = Trace of Precipitation, MM = Missing Value Source: NWS Daily Summary

Daily Weather History Graph

Daily Weather History Graph

Search for Another Location

Airport or City:

Trip Planner

Search our weather history database for the weather conditions in past years. The results will help you decide how hot, cold, wet, or windy it might be!

Date:

Astronomy

Jan. 12, 2014 Rise Set
Actual Time 7:35 AM PST 4:22 PM PST
Civil Twilight 7:00 AM PST 4:57 PM PST
Nautical Twilight 6:21 AM PST 5:35 PM PST
Astronomical Twilight 5:44 AM PST 6:12 PM PST
Moon 1:55 PM PST 4:36 AM PST
Length of Visible Light 9h 56m
Length of Day
8h 46m
Waxing Gibbous, 90% of the Moon is Illuminated
Jan 12
Waxing Gibbous
Jan 15
Full
Jan 23
Last Quarter
Jan 30
New
Feb 6
First Quarter

Hourly Weather History & Observations

Time (PST) Temp. Windchill Dew Point Humidity Pressure Visibility Wind Dir Wind Speed Gust Speed Precip Events Conditions
12:17 AM 35.6 °F 23.0 °F 30.2 °F 81% 29.49 in 10.0 mi SW 27.6 mph 39.1 mph N/A   Mostly Cloudy
12:53 AM 34.0 °F 21.3 °F 30.0 °F 85% 29.53 in 10.0 mi SW 25.3 mph 36.8 mph N/A   Mostly Cloudy
1:53 AM 34.0 °F 21.5 °F 28.9 °F 82% 29.58 in 10.0 mi SW 24.2 mph 35.7 mph N/A   Mostly Cloudy
2:53 AM 34.0 °F 21.8 °F 28.9 °F 82% 29.64 in 10.0 mi SW 23.0 mph - N/A   Mostly Cloudy
3:53 AM 35.1 °F 22.0 °F 28.0 °F 76% 29.68 in 10.0 mi WSW 28.8 mph 34.5 mph N/A   Scattered Clouds
4:53 AM 35.1 °F 23.3 °F 27.0 °F 72% 29.73 in 10.0 mi WSW 23.0 mph 31.1 mph N/A   Mostly Cloudy
5:53 AM 35.1 °F 22.2 °F 24.1 °F 64% 29.79 in 10.0 mi WSW 27.6 mph 34.5 mph N/A   Mostly Cloudy
6:53 AM 33.1 °F 21.9 °F 25.0 °F 72% 29.85 in 10.0 mi SW 18.4 mph - N/A   Mostly Cloudy
7:53 AM 34.0 °F 24.2 °F 25.0 °F 70% 29.90 in 10.0 mi SSW 15.0 mph - N/A   Mostly Cloudy
8:53 AM 34.0 °F 23.0 °F 26.1 °F 73% 29.96 in 10.0 mi SW 18.4 mph - N/A   Mostly Cloudy
9:53 AM 35.1 °F 22.7 °F 26.1 °F 70% 29.99 in 10.0 mi SW 25.3 mph 33.4 mph N/A   Mostly Cloudy
10:53 AM 35.1 °F 24.1 °F 27.0 °F 72% 30.00 in 10.0 mi SW 19.6 mph - N/A   Mostly Cloudy
11:53 AM 36.0 °F 24.7 °F 28.0 °F 73% 30.01 in 10.0 mi SSW 21.9 mph 26.5 mph N/A   Mostly Cloudy
12:53 PM 37.0 °F 28.1 °F 28.9 °F 73% 30.00 in 10.0 mi SSW 15.0 mph 21.9 mph N/A   Overcast
1:53 PM 36.0 °F 26.0 °F 32.0 °F 86% 30.02 in 6.0 mi SW 17.3 mph 25.3 mph 0.00 in Rain Light Rain
2:20 PM 35.6 °F 26.6 °F 33.8 °F 93% 29.96 in 10.0 mi SSW 13.8 mph - 0.00 in Rain Light Rain
2:53 PM 36.0 °F 27.5 °F 32.0 °F 86% 30.01 in 10.0 mi SSW 12.7 mph - 0.00 in   Overcast
3:53 PM 37.0 °F 28.1 °F 32.0 °F 82% 30.02 in 10.0 mi SSW 15.0 mph - N/A   Overcast
4:16 PM 37.4 °F 28.5 °F 32.0 °F 81% 29.97 in 10.0 mi SSW 15.0 mph - N/A   Mostly Cloudy
4:53 PM 37.9 °F 28.9 °F 33.1 °F 83% 30.01 in 10.0 mi SSW 16.1 mph 23.0 mph N/A   Mostly Cloudy
5:53 PM 37.9 °F 29.2 °F 34.0 °F 86% 30.02 in 10.0 mi SSW 15.0 mph 25.3 mph N/A   Overcast
6:53 PM 39.0 °F 29.6 °F 35.1 °F 86% 30.02 in 10.0 mi SSW 18.4 mph 27.6 mph N/A   Mostly Cloudy
7:53 PM 39.9 °F 30.8 °F 35.1 °F 83% 29.99 in 10.0 mi SSW 18.4 mph 28.8 mph N/A   Overcast
8:53 PM 39.9 °F 30.5 °F 35.1 °F 83% 30.03 in 10.0 mi SW 19.6 mph 26.5 mph N/A   Mostly Cloudy
9:53 PM 39.9 °F 30.0 °F 35.1 °F 83% 30.05 in 10.0 mi SW 21.9 mph 28.8 mph N/A   Scattered Clouds
10:53 PM 41.0 °F 31.6 °F 36.0 °F 82% 30.08 in 10.0 mi SSW 20.7 mph 27.6 mph N/A   Mostly Cloudy
11:53 PM 39.9 °F 30.0 °F 36.0 °F 86% 30.10 in 10.0 mi SSW 21.9 mph - N/A   Mostly Cloudy